Hourly Weather Bolshie Nyrty

Today, 23 July, Friday

Time Temperature Precipitation Wind Pressure Humidity
00:00 +14°C° 0 mm 2 mps 741 mmHg 93%
01:00 +13°C° 0 mm 2 mps 741 mmHg 93%
02:00 +13°C° 0 mm 2 mps 742 mmHg 93%
03:00 +13°C° 0 mm 2 mps 742 mmHg 92%
04:00 +14°C° 0 mm 2 mps 742 mmHg 89%
05:00 +15°C° 0 mm 1 mps 742 mmHg 86%
06:00 +16°C° 0 mm 1 mps 742 mmHg 83%
07:00 +18°C° 0.1 mm 1 mps 742 mmHg 78%
08:00 +18°C° 0.1 mm 1 mps 742 mmHg 74%
09:00 +19°C° 0 mm 1 mps 742 mmHg 67%
10:00 +20°C° 0.1 mm 1 mps 742 mmHg 63%
11:00 +20°C° 0.1 mm 1 mps 743 mmHg 59%
12:00 +21°C° 0.1 mm 1 mps 743 mmHg 55%
13:00 +21°C° 0 mm 2 mps 742 mmHg 54%
14:00 +21°C° 0 mm 2 mps 742 mmHg 53%
15:00 +23°C° 0 mm 2 mps 742 mmHg 51%
16:00 +21°C° 0 mm 2 mps 742 mmHg 55%
17:00 +22°C° 0 mm 1 mps 742 mmHg 60%
18:00 +21°C° 0 mm 1 mps 742 mmHg 64%
19:00 +19°C° 0 mm 2 mps 742 mmHg 65%
20:00 +17°C° 0 mm 2 mps 742 mmHg 67%
21:00 +16°C° 0 mm 2 mps 742 mmHg 68%
22:00 +16°C° 0 mm 2 mps 742 mmHg 68%
23:00 +16°C° 0 mm 2 mps 742 mmHg 68%

Tomorrow, 24 July, Saturday

Time Temperature Precipitation Wind Pressure Humidity
00:00 +15°C° 0 mm 2 mps 742 mmHg 68%
01:00 +15°C° 0 mm 2 mps 742 mmHg 69%
02:00 +14°C° 0 mm 3 mps 742 mmHg 70%
03:00 +14°C° 0 mm 3 mps 742 mmHg 71%
04:00 +14°C° 0 mm 3 mps 742 mmHg 72%
05:00 +16°C° 0 mm 3 mps 742 mmHg 73%
06:00 +16°C° 0 mm 3 mps 743 mmHg 75%
07:00 +17°C° 0 mm 3 mps 743 mmHg 71%
08:00 +19°C° 0 mm 4 mps 743 mmHg 66%
09:00 +20°C° 0 mm 4 mps 743 mmHg 62%
10:00 +20°C° 0.3 mm 5 mps 743 mmHg 64%
11:00 +20°C° 0.3 mm 5 mps 744 mmHg 65%
12:00 +20°C° 0.3 mm 5 mps 744 mmHg 66%
13:00 +19°C° 0.4 mm 5 mps 745 mmHg 67%
14:00 +19°C° 0.4 mm 5 mps 745 mmHg 67%
15:00 +19°C° 0.4 mm 5 mps 746 mmHg 67%
16:00 +19°C° 0 mm 5 mps 746 mmHg 65%
17:00 +18°C° 0 mm 4 mps 747 mmHg 64%
18:00 +18°C° 0 mm 4 mps 747 mmHg 62%
19:00 +16°C° 0 mm 3 mps 748 mmHg 65%
20:00 +14°C° 0 mm 3 mps 748 mmHg 67%
21:00 +13°C° 0 mm 2 mps 749 mmHg 70%
22:00 +13°C° 0 mm 2 mps 749 mmHg 70%
23:00 +13°C° 0 mm 2 mps 749 mmHg 70%

Day after tomorrow, 25 July, Sunday

Time Temperature Precipitation Wind Pressure Humidity
00:00 +13°C° 0 mm 1 mps 750 mmHg 70%
01:00 +12°C° 0 mm 2 mps 750 mmHg 71%
02:00 +12°C° 0 mm 2 mps 751 mmHg 72%
03:00 +12°C° 0 mm 2 mps 751 mmHg 72%
04:00 +12°C° 0 mm 2 mps 751 mmHg 70%
05:00 +12°C° 0 mm 2 mps 752 mmHg 67%
06:00 +12°C° 0 mm 3 mps 753 mmHg 65%
07:00 +13°C° 0 mm 3 mps 753 mmHg 59%
08:00 +15°C° 0 mm 4 mps 753 mmHg 53%
09:00 +17°C° 0 mm 4 mps 753 mmHg 47%
10:00 +18°C° 0 mm 4 mps 754 mmHg 44%
11:00 +19°C° 0 mm 4 mps 754 mmHg 42%
12:00 +20°C° 0 mm 4 mps 754 mmHg 39%
13:00 +20°C° 0 mm 4 mps 754 mmHg 39%
14:00 +20°C° 0 mm 4 mps 754 mmHg 38%
15:00 +20°C° 0 mm 4 mps 754 mmHg 38%
16:00 +20°C° 0 mm 3 mps 754 mmHg 44%
17:00 +19°C° 0 mm 2 mps 754 mmHg 49%
18:00 +20°C° 0 mm 1 mps 754 mmHg 54%
19:00 +19°C° 0 mm 1 mps 755 mmHg 54%
20:00 +18°C° 0 mm 1 mps 755 mmHg 53%
21:00 +15°C° 0 mm 0 mps 755 mmHg 52%
22:00 +16°C° 0 mm 1 mps 755 mmHg 53%
23:00 +15°C° 0 mm 1 mps 755 mmHg 54%

26 July, Monday

Time Temperature Precipitation Wind Pressure Humidity
00:00 +15°C° 0 mm 2 mps 755 mmHg 54%
01:00 +15°C° 0 mm 2 mps 755 mmHg 53%
02:00 +15°C° 0 mm 2 mps 756 mmHg 52%
03:00 +15°C° 0 mm 2 mps 756 mmHg 51%
04:00 +15°C° 0 mm 2 mps 756 mmHg 53%
05:00 +16°C° 0 mm 2 mps 756 mmHg 55%
06:00 +16°C° 0 mm 2 mps 756 mmHg 58%
07:00 +17°C° 0 mm 2 mps 756 mmHg 54%
08:00 +19°C° 0 mm 3 mps 756 mmHg 50%
09:00 +20°C° 0 mm 4 mps 756 mmHg 47%
10:00 +21°C° 0 mm 4 mps 756 mmHg 46%
11:00 +21°C° 0 mm 4 mps 756 mmHg 45%
12:00 +22°C° 0 mm 4 mps 756 mmHg 43%
13:00 +22°C° 0 mm 4 mps 755 mmHg 45%
14:00 +22°C° 0 mm 4 mps 755 mmHg 47%
15:00 +22°C° 0 mm 4 mps 755 mmHg 49%
16:00 +21°C° 0 mm 3 mps 755 mmHg 53%
17:00 +21°C° 0 mm 3 mps 755 mmHg 56%
18:00 +21°C° 0 mm 2 mps 755 mmHg 59%
19:00 +19°C° 0 mm 2 mps 755 mmHg 61%
20:00 +18°C° 0 mm 2 mps 755 mmHg 63%
21:00 +17°C° 0 mm 2 mps 755 mmHg 65%
22:00 +17°C° 0 mm 2 mps 755 mmHg 63%
23:00 +17°C° 0 mm 2 mps 755 mmHg 62%

27 July, Tuesday

Time Temperature Precipitation Wind Pressure Humidity
00:00 +17°C° 0 mm 2 mps 755 mmHg 60%
01:00 +17°C° 0 mm 2 mps 755 mmHg 59%
02:00 +17°C° 0 mm 2 mps 754 mmHg 59%
03:00 +17°C° 0 mm 3 mps 754 mmHg 58%
04:00 +17°C° 0 mm 3 mps 754 mmHg 60%
05:00 +17°C° 0 mm 3 mps 754 mmHg 62%
06:00 +17°C° 0 mm 4 mps 754 mmHg 64%
07:00 +19°C° 0 mm 4 mps 754 mmHg 60%
08:00 +20°C° 0 mm 4 mps 754 mmHg 56%
09:00 +22°C° 0 mm 5 mps 753 mmHg 52%
10:00 +22°C° 0.1 mm 5 mps 753 mmHg 54%
11:00 +23°C° 0.1 mm 5 mps 753 mmHg 55%
12:00 +23°C° 0.1 mm 5 mps 753 mmHg 56%
13:00 +23°C° 0.3 mm 5 mps 752 mmHg 57%
14:00 +23°C° 0.3 mm 5 mps 752 mmHg 57%
15:00 +23°C° 0.3 mm 5 mps 752 mmHg 58%
16:00 +22°C° 0.3 mm 5 mps 752 mmHg 62%
17:00 +21°C° 0.3 mm 4 mps 752 mmHg 67%
18:00 +20°C° 0.3 mm 4 mps 752 mmHg 71%
19:00 +19°C° 0 mm 3 mps 752 mmHg 74%
20:00 +17°C° 0 mm 2 mps 752 mmHg 78%
21:00 +16°C° 0 mm 2 mps 752 mmHg 81%
22:00 +15°C° 0 mm 2 mps 752 mmHg 81%
23:00 +14°C° 0 mm 2 mps 752 mmHg 80%

28 July, Wednesday

Time Temperature Precipitation Wind Pressure Humidity
00:00 +14°C° 0 mm 2 mps 752 mmHg 80%
01:00 +13°C° 0 mm 2 mps 752 mmHg 80%
02:00 +13°C° 0 mm 2 mps 752 mmHg 80%
03:00 +13°C° 0 mm 2 mps 752 mmHg 81%
04:00 +14°C° 0 mm 2 mps 752 mmHg 78%
05:00 +15°C° 0 mm 2 mps 752 mmHg 75%
06:00 +16°C° 0 mm 2 mps 752 mmHg 72%
07:00 +18°C° 0 mm 2 mps 752 mmHg 66%
08:00 +19°C° 0 mm 3 mps 752 mmHg 60%
09:00 +21°C° 0 mm 4 mps 752 mmHg 54%
10:00 +22°C° 0 mm 5 mps 751 mmHg 51%
11:00 +23°C° 0 mm 5 mps 751 mmHg 47%
12:00 +26°C° 0 mm 6 mps 751 mmHg 44%
13:00 +26°C° 0 mm 5 mps 751 mmHg 46%
14:00 +25°C° 0 mm 5 mps 750 mmHg 48%
15:00 +25°C° 0 mm 4 mps 750 mmHg 50%
16:00 +25°C° 0 mm 3 mps 750 mmHg 53%
17:00 +24°C° 0 mm 3 mps 749 mmHg 57%
18:00 +23°C° 0 mm 2 mps 749 mmHg 60%
19:00 +21°C° 0.3 mm 2 mps 749 mmHg 65%
20:00 +19°C° 0.3 mm 2 mps 749 mmHg 69%
21:00 +18°C° 0.3 mm 2 mps 749 mmHg 74%
22:00 +18°C° 0.4 mm 3 mps 749 mmHg 77%
23:00 +17°C° 0.4 mm 3 mps 749 mmHg 81%
Show more

We Need Your Consent

Meteoprog and our Service Providers may store and access personal data such as cookies, device identifiers or other similar technologies on your device and process such data to personalise content and ads, as well as provide social media features and to analyse the traffic.

  • Store and/or access information on your device

    Cookies, device identifiers or other information can be stored or accessed on your device for the purposes indicated above.

  • Personalised ads and content, ad and content measurement, audience insights, and products development

    Ads and content can be personalised based on a profile. More data can be added to better personalise ads and content. Ad and content performance can be measured. Insights about the audience who saw the ads and content can be derived. Such data can be used to develop or improve user’s experience, systems and software.

By clicking ‘I Agree’ you will allow the use of indicated cookies, device identifiers, web beacons or other similar technologies. Your settings can be changed in the browser on your device.

For certain purposes, legitimate interests may be relied on, rather than consent. You can read more about this in our Privacy and Cookie Policy.